Boise, ID

10:52 AM MDT on April 25, 2018 (GMT -0600)
Boise Air Term

Weather History for KBOI - November, 2013

Change the Weather History Date:

Sunday, November 17, 2013

  Actual Average Record
Temperature  
Mean Temperature 42 °F 39 °F  
Max Temperature 50 °F 47 °F 67 °F (1908)
Min Temperature 34 °F 32 °F 6 °F (2014)
Degree Days  
Heating Degree Days 23 26  
Month to date heating degree days 377 377  
Since 1 July heating degree days 920 883  
Cooling Degree Days 0 0  
Month to date cooling degree days 0 0  
Year to date cooling degree days 1320 942  
Moisture  
Dew Point 29 °F    
Average Humidity 62    
Maximum Humidity 82    
Minimum Humidity 42    
Precipitation  
Precipitation 0.00 in 0.05 in 0.92 in (1898)
Month to date precipitation 0.59 0.72  
Year to date precipitation 8.01 9.55  
Snow  
Snow 0.00 in 0.10 in 3.70 in (1994)
Month to date snowfall T 0.9  
Since 1 July snowfall T 1.0  
Snow Depth 0.00 in    
Sea Level Pressure  
Sea Level Pressure 30.03 in    
Wind  
Wind Speed 7 mph (ESE)    
Max Wind Speed 15 mph    
Max Gust Speed 17 mph    
Visibility 10 miles    
Events      
T = Trace of Precipitation, MM = Missing Value Source: NWS Daily Summary

Daily Weather History Graph

Daily Weather History Graph

Search for Another Location

Airport or City:

Astronomy

Nov. 17, 2013 Rise Set
Actual Time 7:41 AM MST 5:17 PM MST
Civil Twilight 7:10 AM MST 5:48 PM MST
Nautical Twilight 6:35 AM MST 6:23 PM MST
Astronomical Twilight 6:01 AM MST 6:57 PM MST
Moon 5:37 PM MST (11/17) 7:39 AM MST (11/17)
Length of Visible Light 10h 38m
Length of Day
9h 36m
Full, 100% of the Moon is Illuminated
Nov 17
Full
Nov 25
Last Quarter
Dec 2
New
Dec 9
First Quarter
Dec 17
Full

Hourly Weather History & Observations

Time (MST) Temp. Windchill Dew Point Humidity Pressure Visibility Wind Dir Wind Speed Gust Speed Precip Events Conditions
12:53 AM 36.0 °F 30.3 °F 30.0 °F 79% 29.86 in 10.0 mi East 6.9 mph - N/A   Overcast
1:53 AM 35.1 °F 30.1 °F 28.9 °F 78% 29.87 in 10.0 mi East 5.8 mph - N/A   Overcast
2:53 AM 37.0 °F 29.8 °F 28.9 °F 73% 29.89 in 10.0 mi SE 10.4 mph - N/A   Overcast
3:53 AM 35.1 °F 29.3 °F 28.9 °F 78% 29.90 in 10.0 mi ESE 6.9 mph - N/A   Mostly Cloudy
4:53 AM 35.1 °F 26.9 °F 28.9 °F 78% 29.93 in 10.0 mi SE 11.5 mph - N/A   Overcast
5:53 AM 36.0 °F 29.6 °F 30.0 °F 79% 29.94 in 10.0 mi SE 8.1 mph - N/A   Overcast
6:53 AM 35.1 °F 27.9 °F 28.9 °F 78% 29.97 in 10.0 mi ESE 9.2 mph - N/A   Overcast
7:53 AM 35.1 °F 29.3 °F 28.9 °F 78% 30.00 in 10.0 mi ESE 6.9 mph - N/A   Mostly Cloudy
8:53 AM 36.0 °F 30.3 °F 30.0 °F 79% 30.02 in 10.0 mi ESE 6.9 mph - N/A   Overcast
9:53 AM 39.9 °F 35.1 °F 32.0 °F 73% 30.05 in 10.0 mi SE 6.9 mph - N/A   Mostly Cloudy
10:53 AM 44.1 °F 42.5 °F 28.9 °F 55% 30.07 in 10.0 mi SE 3.5 mph - N/A   Clear
11:53 AM 46.0 °F 44.8 °F 28.0 °F 50% 30.07 in 10.0 mi SW 3.5 mph - N/A   Partly Cloudy
12:53 PM 48.0 °F - 28.9 °F 48% 30.07 in 10.0 mi ENE 4.6 mph - N/A   Clear
1:53 PM 46.9 °F - 28.0 °F 48% 30.07 in 10.0 mi Calm Calm - N/A   Clear
2:53 PM 48.0 °F - 26.1 °F 42% 30.06 in 10.0 mi Calm Calm - N/A   Clear
3:53 PM 48.0 °F - 27.0 °F 44% 30.06 in 10.0 mi Calm Calm - N/A   Clear
4:53 PM 46.9 °F - 28.0 °F 48% 30.06 in 10.0 mi ESE 8.1 mph - N/A   Clear
5:53 PM 42.1 °F 37.7 °F 28.9 °F 60% 30.07 in 10.0 mi SE 6.9 mph - N/A   Clear
6:53 PM 41.0 °F 35.8 °F 28.9 °F 62% 30.09 in 10.0 mi ESE 8.1 mph - N/A   Clear
7:53 PM 39.0 °F 32.8 °F 28.9 °F 67% 30.10 in 10.0 mi SE 9.2 mph - N/A   Clear
8:53 PM 39.9 °F 33.9 °F 28.9 °F 65% 30.10 in 10.0 mi SE 9.2 mph - N/A   Clear
9:53 PM 39.9 °F 32.9 °F 28.9 °F 65% 30.11 in 10.0 mi ESE 11.5 mph - N/A   Clear
10:53 PM 39.0 °F 32.8 °F 28.9 °F 67% 30.10 in 10.0 mi SE 9.2 mph - N/A   Clear
11:53 PM 39.9 °F 32.5 °F 28.0 °F 63% 30.09 in 10.0 mi ESE 12.7 mph - N/A   Clear